Tracking 28920 objects as of 26-May-2024
HD Live streaming from Space Station
objects crossing your sky now

STARLINK-31858

Track STARLINK-31858 now!
10-day predictions
STARLINK-31858 is classified as:


NORAD ID: 59658
Int'l Code: 2024-084E
Perigee: 411.6 km
Apogee: 413.6 km
Inclination: 43.0 °
Period: 92.7 minutes
Semi major axis: 6783 km
RCS: Unknown
Launch date: May 6, 2024
Source: United States (US)
Launch site: AIR FORCE EASTERN TEST RANGE (AFETR)
Your satellite tracking list
Your tracking list is empty




NASA's NSSDC Master Catalog

Two Line Element Set (TLE):
1 59658U 24084E   24147.58334491 -.01708516  00000-0 -28950-1 0  9991
2 59658  43.0001 154.8080 0001499 268.9236  51.1850 15.53858646  4306
Source of the keplerian elements: AFSPC